{"data":{"norad_id":48107,"epoch":"2026-09-19T16:17:26.772576Z","epoch_age_seconds":100179,"freshness":"FRESH","line1":"1 48107U 21027R   26262.67878209  .00002700  00000+0  98712-4 0  9996","line2":"2 48107  53.1593 329.9919 0001152  91.6798 268.4336 15.31711550302409","mean_motion":15.3171155,"eccentricity":0.0001152,"inclination_deg":53.1593,"raan_deg":329.9919,"arg_perigee_deg":91.6798,"mean_anomaly_deg":268.4336,"bstar":9.8712e-5,"rev_number":30240,"period_min":94.012479046724,"perigee_km":469.91657882947,"apogee_km":471.49455215656,"semimajor_km":6848.842565493,"source":"CELESTRAK","updated_at":"2026-09-20T09:00:38.763547Z"}}